QPF
0.00 0.00 0.00 0.00 0.01 0.01 0.02 0.03 0.03 0.02 0.02 0.03 0.02 0.02 0.03 0.03 0.04 0.05 0.06 0.06 0.05 0.05 0.06 0.06 0.07 0.05 0.06 0.07 0.08 0.08 0.07 0.07 0.06 0.05 0.04 0.02 0.02 0.02 0.02 0.04 0.04 0.04 0.03
0.00 0.01 0.02 0.03 0.03 0.03 0.02 0.03 0.04 0.03 0.02 0.02 0.02 0.02 0.02 0.04 0.05 0.07 0.09 0.09 0.08 0.06 0.06 0.07 0.06 0.06 0.07 0.07 0.07 0.07 0.07 0.07 0.06 0.05 0.06 0.06 0.04 0.02 0.01 0.03 0.02 0.02 0.02
0.01 0.02 0.04 0.07 0.07 0.08 0.06 0.04 0.05 0.04 0.03 0.02 0.02 0.02 0.03 0.03 0.07 0.09 0.08 0.08 0.09 0.08 0.06 0.07 0.07 0.07 0.07 0.06 0.06 0.05 0.06 0.07 0.06 0.05 0.06 0.07 0.07 0.05 0.03 0.02 0.01 0.02 0.02
0.01 0.02 0.04 0.07 0.13 0.15 0.11 0.05 0.07 0.07 0.04 0.03 0.02 0.02 0.02 0.01 0.05 0.06 0.07 0.07 0.12 0.09 0.05 0.06 0.06 0.06 0.06 0.07 0.05 0.05 0.06 0.06 0.05 0.06 0.07 0.07 0.08 0.08 0.06 0.03 0.02 0.02 0.02
0.01 0.02 0.04 0.07 0.12 0.14 0.08 0.03 0.05 0.10 0.08 0.04 0.03 0.02 0.01 0.02 0.02 0.02 0.03 0.03 0.03 0.03 0.03 0.03 0.03 0.02 0.03 0.04 0.05 0.06 0.05 0.04 0.04 0.04 0.06 0.08 0.08 0.07 0.07 0.06 0.05 0.04 0.03
0.02 0.02 0.03 0.03 0.04 0.04 0.03 0.03 0.03 0.06 0.09 0.05 0.03 0.03 0.03 0.03 0.02 0.03 0.03 0.04 0.03 0.03 0.02 0.02 0.02 0.02 0.02 0.03 0.04 0.06 0.04 0.04 0.05 0.05 0.05 0.07 0.07 0.07 0.09 0.08 0.07 0.06 0.04
0.02 0.02 0.02 0.02 0.02 0.02 0.02 0.02 0.03 0.03 0.04 0.04 0.03 0.03 0.04 0.04 0.03 0.02 0.03 0.03 0.02 0.02 0.03 0.03 0.04 0.03 0.03 0.03 0.04 0.05 0.05 0.05 0.05 0.05 0.04 0.04 0.04 0.06 0.07 0.09 0.09 0.08 0.06
0.01 0.02 0.01 0.01 0.01 0.01 0.01 0.01 0.02 0.02 0.03 0.02 0.03 0.03 0.04 0.03 0.04 0.04 0.03 0.03 0.02 0.02 0.03 0.05 0.05 0.05 0.04 0.03 0.04 0.04 0.04 0.05 0.06 0.06 0.06 0.06 0.06 0.06 0.06 0.07 0.10 0.10 0.09
0.01 0.01 0.01 0.01 0.02 0.01 0.01 0.01 0.01 0.02 0.02 0.01 0.01 0.02 0.02 0.03 0.03 0.04 0.05 0.04 0.03 0.02 0.03 0.03 0.04 0.04 0.03 0.04 0.04 0.04 0.04 0.05 0.05 0.05 0.06 0.05 0.04 0.04 0.04 0.05 0.09 0.13 0.11
0.01 0.01 0.01 0.01 0.01 0.02 0.02 0.01 0.01 0.01 0.01 0.01 0.01 0.01 0.01 0.01 0.02 0.03 0.03 0.04 0.03 0.03 0.02 0.02 0.03 0.03 0.03 0.03 0.04 0.04 0.05 0.05 0.04 0.05 0.07 0.06 0.06 0.07 0.07 0.06 0.07 0.10 0.11
0.01 0.01 0.01 0.01 0.01 0.01 0.01 0.01 0.01 0.01 0.01 0.01 0.01 0.01 0.01 0.01 0.01 0.01 0.02 0.03 0.03 0.02 0.02 0.02 0.02 0.02 0.02 0.03 0.04 0.05 0.06 0.06 0.06 0.05 0.06 0.06 0.09 0.09 0.10 0.10 0.11 0.10 0.10
0.01 0.02 0.01 0.01 0.01 0.01 0.02 0.02 0.02 0.01 0.01 0.01 0.01 0.01 0.01 0.01 0.01 0.01 0.01 0.01 0.02 0.02 0.02 0.02 0.02 0.02 0.02 0.04 0.04 0.04 0.06 0.06 0.06 0.05 0.06 0.06 0.07 0.08 0.08 0.08 0.07 0.08 0.08
0.02 0.04 0.03 0.03 0.03 0.02 0.02 0.02 0.03 0.02 0.02 0.01 0.01 0.01 0.01 0.01 0.01 0.02 0.02 0.02 0.01 0.01 0.02 0.02 0.02 0.03 0.03 0.03 0.03 0.05 0.06 0.06 0.06 0.06 0.05 0.05 0.06 0.06 0.07 0.07 0.07 0.07 0.08
0.05 0.09 0.07 0.05 0.04 0.03 0.03 0.02 0.04 0.03 0.02 0.02 0.02 0.02 0.01 0.01 0.02 0.02 0.02 0.02 0.02 0.02 0.02 0.02 0.02 0.03 0.03 0.03 0.03 0.03 0.03 0.03 0.04 0.04 0.05 0.05 0.04 0.04 0.05 0.06 0.08 0.09 0.11
0.06 0.08 0.09 0.07 0.04 0.04 0.04 0.03 0.04 0.05 0.04 0.04 0.04 0.03 0.02 0.02 0.02 0.02 0.02 0.02 0.02 0.02 0.02 0.02 0.02 0.02 0.02 0.02 0.03 0.03 0.02 0.04 0.05 0.05 0.06 0.05 0.05 0.06 0.05 0.04 0.06 0.07 0.08
0.05 0.05 0.06 0.08 0.04 0.05 0.05 0.04 0.03 0.06 0.05 0.04 0.06 0.04 0.03 0.02 0.02 0.02 0.02 0.02 0.02 0.02 0.02 0.02 0.03 0.03 0.02 0.02 0.02 0.03 0.03 0.04 0.04 0.05 0.05 0.05 0.06 0.07 0.04 0.03 0.03 0.03 0.04
0.04 0.05 0.04 0.04 0.03 0.04 0.04 0.05 0.03 0.03 0.04 0.04 0.05 0.05 0.03 0.02 0.02 0.01 0.02 0.02 0.02 0.02 0.03 0.03 0.04 0.05 0.05 0.04 0.04 0.03 0.04 0.05 0.05 0.05 0.05 0.05 0.05 0.05 0.04 0.04 0.04 0.03 0.02
0.04 0.04 0.04 0.03 0.02 0.03 0.03 0.03 0.03 0.03 0.02 0.03 0.04 0.04 0.04 0.03 0.02 0.03 0.02 0.02 0.02 0.02 0.02 0.03 0.04 0.06 0.05 0.05 0.04 0.03 0.04 0.05 0.06 0.06 0.06 0.06 0.06 0.04 0.03 0.05 0.05 0.04 0.03
0.04 0.03 0.02 0.02 0.02 0.03 0.04 0.03 0.04 0.03 0.03 0.02 0.02 0.03 0.03 0.03 0.03 0.03 0.03 0.03 0.02 0.02 0.02 0.04 0.05 0.05 0.04 0.03 0.03 0.04 0.05 0.05 0.04 0.05 0.05 0.05 0.05 0.05 0.04 0.05 0.06 0.05 0.05
0.02 0.02 0.02 0.01 0.02 0.03 0.04 0.04 0.03 0.03 0.03 0.03 0.04 0.04 0.03 0.03 0.03 0.03 0.04 0.04 0.04 0.03 0.03 0.04 0.05 0.06 0.04 0.03 0.02 0.02 0.04 0.04 0.04 0.04 0.05 0.04 0.04 0.04 0.04 0.04 0.05 0.06 0.06
0.03 0.04 0.03 0.03 0.04 0.04 0.04 0.04 0.03 0.03 0.03 0.03 0.03 0.04 0.04 0.03 0.04 0.05 0.04 0.05 0.05 0.05 0.04 0.05 0.05 0.06 0.05 0.03 0.03 0.02 0.02 0.02 0.03 0.04 0.04 0.05 0.06 0.04 0.04 0.03 0.03 0.05 0.06
0.03 0.03 0.03 0.03 0.04 0.04 0.04 0.04 0.05 0.05 0.05 0.04 0.03 0.04 0.04 0.03 0.03 0.04 0.04 0.04 0.04 0.05 0.05 0.05 0.06 0.05 0.04 0.03 0.02 0.02 0.03 0.02 0.02 0.04 0.04 0.05 0.05 0.03 0.02 0.03 0.03 0.03 0.04
0.06 0.05 0.04 0.05 0.05 0.05 0.05 0.05 0.05 0.04 0.04 0.04 0.04 0.05 0.04 0.05 0.05 0.05 0.05 0.04 0.04 0.04 0.04 0.04 0.04 0.04 0.03 0.02 0.02 0.02 0.02 0.02 0.02 0.03 0.04 0.03 0.03 0.03 0.03 0.03 0.03 0.03 0.03
0.06 0.07 0.07 0.06 0.06 0.05 0.05 0.06 0.06 0.05 0.05 0.05 0.04 0.05 0.05 0.06 0.06 0.06 0.04 0.03 0.03 0.03 0.04 0.03 0.03 0.03 0.02 0.02 0.02 0.02 0.03 0.03 0.03 0.04 0.04 0.03 0.03 0.03 0.03 0.03 0.03 0.03 0.04
0.05 0.06 0.05 0.05 0.06 0.05 0.05 0.07 0.06 0.05 0.05 0.04 0.04 0.04 0.04 0.06 0.07 0.05 0.04 0.03 0.02 0.02 0.03 0.03 0.04 0.03 0.03 0.03 0.04 0.05 0.05 0.05 0.04 0.04 0.03 0.03 0.02 0.03 0.03 0.03 0.03 0.03 0.04
0.05 0.05 0.04 0.04 0.04 0.04 0.04 0.04 0.05 0.04 0.04 0.03 0.03 0.03 0.04 0.05 0.06 0.06 0.04 0.03 0.03 0.03 0.03 0.04 0.05 0.04 0.04 0.03 0.03 0.03 0.03 0.04 0.04 0.03 0.04 0.04 0.03 0.02 0.02 0.03 0.03 0.03 0.03
MSLP
1004.02 1005.02 1005.92 1006.70 1007.34 1007.85 1008.28 1008.65 1009.01 1009.38 1009.76 1010.15 1010.53 1010.85 1011.11 1011.28 1011.35 1011.35 1011.29 1011.22 1011.15 1011.11 1011.13 1011.20 1011.31 1011.47 1011.65 1011.83 1012.03 1012.22 1012.42 1012.61 1012.79 1012.95 1013.07 1013.14 1013.14 1013.08 1012.96 1012.82 1012.67 1012.56 1012.53
1003.89 1004.98 1005.97 1006.81 1007.48 1008.00 1008.40 1008.76 1009.10 1009.46 1009.87 1010.29 1010.71 1011.09 1011.39 1011.59 1011.69 1011.70 1011.65 1011.58 1011.52 1011.51 1011.54 1011.63 1011.76 1011.92 1012.08 1012.24 1012.40 1012.56 1012.72 1012.88 1013.06 1013.22 1013.36 1013.45 1013.49 1013.46 1013.36 1013.22 1013.08 1012.96 1012.91
1003.65 1004.84 1005.92 1006.83 1007.54 1008.09 1008.49 1008.83 1009.16 1009.52 1009.93 1010.37 1010.82 1011.23 1011.57 1011.80 1011.93 1011.97 1011.95 1011.92 1011.90 1011.92 1011.99 1012.12 1012.27 1012.43 1012.59 1012.72 1012.83 1012.94 1013.04 1013.17 1013.31 1013.46 1013.61 1013.74 1013.82 1013.83 1013.78 1013.68 1013.56 1013.45 1013.39
1003.27 1004.56 1005.74 1006.75 1007.54 1008.12 1008.56 1008.91 1009.23 1009.58 1009.99 1010.43 1010.89 1011.32 1011.68 1011.94 1012.10 1012.18 1012.21 1012.22 1012.25 1012.32 1012.45 1012.62 1012.80 1012.98 1013.13 1013.24 1013.30 1013.35 1013.40 1013.47 1013.57 1013.70 1013.85 1014.00 1014.12 1014.19 1014.19 1014.14 1014.05 1013.96 1013.90
1002.75 1004.14 1005.43 1006.54 1007.43 1008.10 1008.59 1008.97 1009.31 1009.66 1010.06 1010.50 1010.95 1011.39 1011.76 1012.05 1012.24 1012.35 1012.42 1012.48 1012.56 1012.70 1012.87 1013.09 1013.31 1013.51 1013.66 1013.75 1013.78 1013.78 1013.78 1013.79 1013.85 1013.95 1014.09 1014.26 1014.41 1014.52 1014.57 1014.57 1014.51 1014.43 1014.37
1002.08 1003.54 1004.95 1006.18 1007.19 1007.97 1008.54 1008.98 1009.36 1009.73 1010.13 1010.57 1011.02 1011.45 1011.83 1012.13 1012.35 1012.50 1012.60 1012.70 1012.84 1013.01 1013.24 1013.49 1013.75 1013.97 1014.13 1014.21 1014.23 1014.20 1014.16 1014.13 1014.15 1014.22 1014.35 1014.51 1014.68 1014.82 1014.91 1014.94 1014.91 1014.84 1014.77
1001.24 1002.78 1004.29 1005.65 1006.79 1007.70 1008.38 1008.91 1009.35 1009.76 1010.18 1010.62 1011.07 1011.50 1011.89 1012.21 1012.44 1012.61 1012.75 1012.88 1013.05 1013.25 1013.51 1013.79 1014.07 1014.31 1014.49 1014.59 1014.62 1014.58 1014.52 1014.47 1014.46 1014.51 1014.62 1014.77 1014.94 1015.09 1015.20 1015.25 1015.24 1015.18 1015.10
1000.30 1001.88 1003.48 1004.96 1006.23 1007.26 1008.07 1008.71 1009.22 1009.69 1010.14 1010.61 1011.07 1011.52 1011.92 1012.25 1012.50 1012.70 1012.85 1013.01 1013.19 1013.41 1013.67 1013.97 1014.27 1014.53 1014.74 1014.86 1014.91 1014.89 1014.85 1014.80 1014.78 1014.82 1014.91 1015.04 1015.20 1015.34 1015.45 1015.51 1015.50 1015.45 1015.36
999.31 1000.92 1002.58 1004.14 1005.52 1006.68 1007.61 1008.35 1008.96 1009.50 1010.01 1010.51 1011.00 1011.46 1011.88 1012.24 1012.52 1012.73 1012.91 1013.07 1013.25 1013.47 1013.74 1014.04 1014.34 1014.62 1014.85 1015.01 1015.10 1015.13 1015.12 1015.10 1015.09 1015.13 1015.21 1015.32 1015.46 1015.59 1015.69 1015.74 1015.74 1015.69 1015.59
998.42 1000.01 1001.68 1003.29 1004.74 1005.99 1007.02 1007.87 1008.57 1009.18 1009.75 1010.30 1010.83 1011.33 1011.78 1012.16 1012.47 1012.71 1012.90 1013.08 1013.26 1013.47 1013.72 1014.01 1014.31 1014.60 1014.86 1015.06 1015.20 1015.28 1015.32 1015.34 1015.36 1015.41 1015.48 1015.59 1015.70 1015.82 1015.91 1015.96 1015.96 1015.91 1015.83
997.75 999.29 1000.92 1002.52 1004.00 1005.29 1006.39 1007.31 1008.09 1008.77 1009.40 1010.00 1010.58 1011.12 1011.61 1012.03 1012.37 1012.64 1012.85 1013.04 1013.22 1013.42 1013.65 1013.92 1014.21 1014.51 1014.78 1015.02 1015.21 1015.35 1015.44 1015.51 1015.57 1015.64 1015.72 1015.82 1015.92 1016.02 1016.11 1016.16 1016.17 1016.14 1016.08
997.43 998.86 1000.41 1001.94 1003.38 1004.67 1005.79 1006.76 1007.59 1008.33 1009.01 1009.66 1010.28 1010.86 1011.39 1011.85 1012.23 1012.53 1012.77 1012.98 1013.16 1013.35 1013.57 1013.82 1014.10 1014.38 1014.67 1014.93 1015.15 1015.34 1015.48 1015.60 1015.70 1015.79 1015.88 1015.98 1016.09 1016.18 1016.27 1016.34 1016.38 1016.38 1016.35
997.50 998.80 1000.20 1001.61 1002.96 1004.20 1005.30 1006.27 1007.13 1007.90 1008.62 1009.31 1009.97 1010.58 1011.15 1011.65 1012.07 1012.41 1012.68 1012.90 1013.10 1013.29 1013.50 1013.73 1013.98 1014.25 1014.53 1014.80 1015.04 1015.25 1015.43 1015.59 1015.72 1015.84 1015.95 1016.06 1016.17 1016.28 1016.39 1016.48 1016.55 1016.60 1016.62
997.96 999.06 1000.28 1001.53 1002.74 1003.89 1004.93 1005.88 1006.74 1007.53 1008.28 1008.99 1009.67 1010.31 1010.91 1011.44 1011.89 1012.27 1012.58 1012.82 1013.04 1013.23 1013.43 1013.64 1013.88 1014.12 1014.38 1014.63 1014.87 1015.10 1015.30 1015.47 1015.63 1015.77 1015.90 1016.04 1016.17 1016.30 1016.43 1016.56 1016.68 1016.78 1016.86
998.69 999.58 1000.58 1001.62 1002.67 1003.69 1004.66 1005.56 1006.41 1007.20 1007.96 1008.69 1009.39 1010.05 1010.66 1011.22 1011.70 1012.11 1012.45 1012.73 1012.96 1013.17 1013.36 1013.56 1013.77 1013.98 1014.21 1014.43 1014.65 1014.87 1015.07 1015.25 1015.43 1015.59 1015.75 1015.91 1016.07 1016.23 1016.40 1016.57 1016.74 1016.90 1017.02
999.55 1000.21 1000.96 1001.79 1002.66 1003.54 1004.41 1005.26 1006.08 1006.88 1007.64 1008.38 1009.09 1009.76 1010.39 1010.96 1011.46 1011.90 1012.26 1012.57 1012.83 1013.06 1013.26 1013.44 1013.62 1013.80 1013.99 1014.18 1014.38 1014.57 1014.76 1014.95 1015.14 1015.32 1015.51 1015.70 1015.89 1016.09 1016.30 1016.51 1016.72 1016.92 1017.09
1000.38 1000.79 1001.30 1001.91 1002.59 1003.34 1004.11 1004.91 1005.71 1006.50 1007.28 1008.02 1008.74 1009.42 1010.05 1010.63 1011.15 1011.61 1012.00 1012.34 1012.62 1012.86 1013.07 1013.25 1013.41 1013.57 1013.72 1013.87 1014.03 1014.21 1014.39 1014.58 1014.78 1014.99 1015.20 1015.43 1015.66 1015.90 1016.14 1016.38 1016.61 1016.84 1017.05
1001.06 1001.22 1001.50 1001.90 1002.41 1003.03 1003.72 1004.47 1005.25 1006.04 1006.82 1007.58 1008.30 1008.99 1009.62 1010.21 1010.74 1011.21 1011.63 1012.00 1012.31 1012.57 1012.78 1012.96 1013.12 1013.25 1013.38 1013.51 1013.65 1013.80 1013.98 1014.17 1014.39 1014.63 1014.88 1015.14 1015.40 1015.67 1015.93 1016.19 1016.44 1016.67 1016.89
1001.54 1001.48 1001.55 1001.76 1002.12 1002.62 1003.24 1003.95 1004.71 1005.50 1006.29 1007.06 1007.79 1008.47 1009.11 1009.70 1010.24 1010.73 1011.17 1011.55 1011.89 1012.17 1012.40 1012.59 1012.75 1012.87 1012.99 1013.10 1013.23 1013.38 1013.56 1013.77 1014.02 1014.28 1014.57 1014.86 1015.15 1015.44 1015.71 1015.97 1016.21 1016.43 1016.63
1001.87 1001.63 1001.52 1001.58 1001.82 1002.22 1002.77 1003.43 1004.17 1004.95 1005.74 1006.50 1007.24 1007.92 1008.56 1009.15 1009.69 1010.19 1010.64 1011.05 1011.40 1011.71 1011.96 1012.17 1012.33 1012.46 1012.58 1012.70 1012.83 1012.98 1013.18 1013.42 1013.68 1013.98 1014.30 1014.61 1014.92 1015.22 1015.48 1015.72 1015.93 1016.12 1016.29
1002.18 1001.80 1001.56 1001.50 1001.64 1001.95 1002.43 1003.04 1003.75 1004.50 1005.27 1006.02 1006.74 1007.41 1008.04 1008.62 1009.16 1009.66 1010.12 1010.54 1010.91 1011.24 1011.51 1011.74 1011.92 1012.07 1012.20 1012.33 1012.48 1012.65 1012.87 1013.13 1013.42 1013.74 1014.08 1014.41 1014.72 1015.00 1015.25 1015.46 1015.63 1015.77 1015.89
1002.59 1002.14 1001.82 1001.68 1001.73 1001.97 1002.37 1002.92 1003.56 1004.26 1004.99 1005.70 1006.38 1007.02 1007.63 1008.19 1008.71 1009.20 1009.66 1010.09 1010.48 1010.82 1011.11 1011.36 1011.56 1011.73 1011.89 1012.04 1012.21 1012.41 1012.64 1012.92 1013.23 1013.56 1013.90 1014.23 1014.53 1014.79 1015.00 1015.17 1015.29 1015.38 1015.45
1003.22 1002.75 1002.40 1002.21 1002.20 1002.37 1002.69 1003.15 1003.71 1004.34 1004.98 1005.62 1006.24 1006.83 1007.39 1007.91 1008.41 1008.88 1009.33 1009.75 1010.14 1010.50 1010.81 1011.07 1011.30 1011.49 1011.67 1011.84 1012.03 1012.25 1012.50 1012.79 1013.10 1013.43 1013.75 1014.06 1014.33 1014.55 1014.72 1014.84 1014.91 1014.96 1014.98
1004.11 1003.67 1003.34 1003.13 1003.08 1003.17 1003.41 1003.77 1004.22 1004.73 1005.27 1005.82 1006.35 1006.86 1007.35 1007.82 1008.27 1008.71 1009.14 1009.54 1009.93 1010.28 1010.60 1010.87 1011.12 1011.33 1011.53 1011.73 1011.93 1012.16 1012.41 1012.69 1012.99 1013.29 1013.58 1013.85 1014.07 1014.25 1014.37 1014.44 1014.48 1014.49 1014.49
1005.22 1004.86 1004.57 1004.37 1004.28 1004.31 1004.46 1004.71 1005.03 1005.42 1005.82 1006.25 1006.67 1007.08 1007.49 1007.89 1008.28 1008.68 1009.06 1009.44 1009.81 1010.15 1010.46 1010.75 1011.00 1011.23 1011.44 1011.64 1011.86 1012.08 1012.32 1012.58 1012.84 1013.10 1013.34 1013.55 1013.72 1013.84 1013.92 1013.95 1013.96 1013.96 1013.95
1006.42 1006.16 1005.93 1005.75 1005.65 1005.63 1005.69 1005.82 1006.02 1006.26 1006.54 1006.82 1007.13 1007.43 1007.74 1008.06 1008.39 1008.72 1009.06 1009.40 1009.74 1010.06 1010.36 1010.63 1010.88 1011.11 1011.33 1011.53 1011.74 1011.95 1012.16 1012.38 1012.59 1012.79 1012.97 1013.12 1013.22 1013.29 1013.33 1013.34 1013.34 1013.35 1013.37
Thickness
5815 5814 5812 5809 5803 5798 5793 5788 5784 5781 5778 5774 5770 5767 5764 5763 5762 5759 5756 5754 5752 5751 5748 5746 5744 5742 5741 5741 5741 5740 5738 5736 5737 5733 5731 5734 5738 5739 5739 5739 5738 5737 5738
5808 5806 5804 5801 5796 5792 5788 5785 5781 5778 5775 5772 5770 5767 5764 5761 5759 5757 5754 5752 5750 5748 5747 5743 5742 5741 5739 5739 5738 5736 5734 5734 5735 5730 5725 5723 5726 5732 5737 5735 5735 5736 5736
5802 5800 5797 5795 5791 5786 5783 5781 5778 5775 5772 5771 5768 5765 5761 5758 5755 5752 5750 5749 5747 5745 5744 5742 5740 5738 5737 5735 5734 5734 5731 5728 5731 5731 5725 5718 5716 5721 5728 5731 5733 5734 5733
5801 5796 5793 5790 5787 5783 5780 5777 5774 5771 5769 5767 5764 5760 5755 5751 5750 5749 5748 5746 5745 5743 5741 5740 5738 5736 5735 5733 5732 5732 5730 5728 5725 5727 5728 5726 5724 5717 5716 5723 5728 5730 5729
5798 5793 5790 5787 5785 5782 5778 5774 5770 5766 5764 5763 5761 5757 5753 5751 5750 5748 5745 5743 5741 5740 5738 5736 5734 5733 5731 5730 5729 5728 5727 5726 5724 5723 5723 5723 5723 5722 5714 5712 5718 5722 5725
5794 5790 5788 5784 5780 5778 5774 5770 5765 5761 5760 5758 5756 5753 5749 5747 5745 5743 5740 5739 5738 5736 5735 5734 5731 5729 5728 5727 5726 5725 5723 5723 5722 5721 5721 5719 5717 5716 5715 5712 5713 5714 5719
5788 5783 5780 5777 5773 5770 5767 5764 5759 5755 5754 5753 5750 5748 5746 5744 5741 5740 5738 5736 5734 5733 5731 5731 5728 5726 5725 5724 5723 5721 5719 5719 5718 5718 5718 5718 5717 5718 5716 5713 5710 5711 5715
5780 5778 5776 5773 5768 5764 5761 5758 5754 5750 5749 5748 5746 5744 5742 5740 5739 5737 5736 5734 5732 5731 5729 5727 5725 5724 5722 5721 5719 5718 5716 5715 5715 5715 5714 5714 5715 5716 5715 5712 5708 5704 5707
5772 5772 5770 5767 5763 5759 5755 5753 5749 5746 5745 5745 5743 5740 5738 5736 5735 5734 5733 5730 5729 5728 5726 5724 5722 5720 5719 5717 5715 5713 5712 5712 5711 5710 5710 5710 5711 5712 5713 5712 5709 5701 5698
5763 5763 5762 5760 5757 5754 5751 5749 5746 5743 5742 5741 5739 5736 5733 5732 5731 5730 5727 5726 5725 5724 5722 5720 5719 5717 5715 5713 5711 5710 5709 5708 5707 5706 5706 5705 5706 5707 5708 5707 5707 5705 5700
5755 5754 5753 5753 5752 5749 5746 5743 5740 5738 5736 5735 5733 5731 5729 5728 5726 5724 5722 5721 5721 5719 5718 5716 5714 5712 5710 5709 5707 5706 5705 5703 5702 5702 5701 5701 5701 5701 5702 5702 5701 5700 5699
5747 5747 5745 5744 5743 5741 5740 5738 5736 5733 5732 5731 5729 5727 5725 5723 5720 5719 5717 5717 5715 5714 5713 5712 5710 5708 5706 5705 5703 5701 5700 5698 5697 5697 5696 5696 5697 5695 5696 5695 5695 5695 5695
5735 5736 5734 5733 5733 5734 5734 5733 5731 5729 5728 5726 5724 5722 5720 5718 5715 5714 5713 5712 5710 5709 5708 5707 5704 5703 5702 5700 5699 5697 5696 5695 5693 5692 5691 5690 5690 5689 5689 5689 5689 5689 5691
5723 5721 5720 5722 5724 5725 5726 5726 5725 5724 5722 5720 5717 5715 5714 5713 5711 5710 5708 5708 5706 5704 5703 5701 5700 5699 5697 5696 5694 5692 5691 5690 5689 5688 5687 5686 5685 5683 5683 5683 5682 5683 5682
5712 5711 5709 5711 5715 5717 5718 5719 5718 5717 5715 5713 5711 5709 5709 5707 5706 5704 5703 5703 5701 5699 5698 5696 5695 5693 5692 5691 5688 5687 5686 5685 5684 5683 5682 5681 5680 5679 5677 5677 5676 5676 5675
5700 5702 5702 5702 5705 5708 5709 5709 5710 5709 5708 5705 5704 5704 5703 5701 5699 5698 5697 5696 5695 5693 5692 5690 5689 5688 5687 5685 5682 5681 5681 5680 5679 5677 5677 5676 5675 5673 5672 5671 5670 5669 5668
5693 5693 5694 5695 5698 5700 5701 5699 5701 5702 5700 5698 5697 5697 5696 5694 5693 5692 5691 5689 5688 5686 5685 5684 5683 5681 5680 5678 5676 5675 5674 5674 5673 5672 5671 5671 5671 5668 5666 5665 5663 5663 5662
5683 5686 5686 5688 5691 5694 5694 5693 5694 5693 5692 5691 5690 5689 5687 5687 5687 5685 5684 5683 5681 5680 5679 5679 5678 5677 5674 5672 5670 5669 5669 5669 5668 5668 5666 5664 5663 5662 5660 5659 5658 5657 5656
5676 5678 5681 5683 5683 5683 5685 5685 5685 5686 5685 5682 5682 5681 5681 5680 5679 5679 5678 5677 5676 5675 5674 5674 5673 5671 5668 5666 5664 5663 5664 5663 5663 5663 5662 5660 5658 5656 5654 5652 5651 5651 5650
5670 5671 5673 5675 5674 5675 5676 5676 5675 5676 5675 5675 5675 5675 5674 5673 5672 5672 5671 5671 5670 5669 5668 5667 5667 5665 5663 5660 5658 5657 5658 5657 5657 5657 5656 5655 5653 5650 5648 5646 5645 5643 5644
5660 5662 5664 5664 5665 5666 5666 5666 5667 5667 5669 5669 5669 5668 5668 5667 5666 5666 5665 5665 5664 5663 5661 5661 5660 5660 5658 5655 5653 5651 5651 5651 5650 5650 5650 5649 5646 5644 5642 5640 5639 5638 5638
5651 5653 5654 5655 5657 5658 5658 5658 5658 5660 5662 5662 5662 5661 5661 5661 5662 5659 5659 5659 5657 5656 5655 5654 5654 5654 5653 5651 5649 5646 5644 5644 5644 5644 5643 5642 5639 5637 5635 5634 5634 5633 5632
5641 5643 5645 5646 5649 5651 5652 5651 5651 5653 5653 5653 5653 5654 5655 5655 5654 5653 5652 5652 5651 5649 5648 5648 5647 5647 5647 5646 5643 5639 5637 5636 5635 5636 5635 5634 5632 5631 5630 5630 5628 5627 5627
5632 5634 5637 5638 5640 5642 5644 5645 5646 5646 5646 5646 5646 5647 5647 5647 5647 5646 5646 5645 5644 5643 5642 5642 5641 5641 5640 5639 5636 5633 5630 5629 5628 5627 5627 5626 5626 5626 5626 5625 5624 5623 5623
5623 5626 5628 5629 5631 5634 5635 5636 5637 5637 5637 5637 5637 5638 5639 5641 5639 5639 5639 5639 5638 5637 5636 5636 5635 5634 5632 5630 5627 5626 5625 5623 5621 5618 5618 5619 5619 5619 5620 5620 5620 5619 5618
5616 5618 5620 5623 5624 5626 5626 5627 5628 5628 5628 5628 5628 5630 5631 5632 5632 5631 5630 5630 5630 5629 5628 5627 5626 5626 5624 5622 5620 5618 5616 5614 5612 5610 5612 5612 5613 5613 5614 5614 5614 5614 5614